(512) Taurinensis
ephemeris date magn radius delta ra dec elong phase
Opposition30 May 202613.32.216 AU1.211 AU16h37m-12°04'170.1°4.5°
Today26 Jul 202614.22.046 AU1.366 AU15h57m-15°45'117.7°26.1°
(512) Taurinensis - 2026-07-26
astro.vanbuitenen.nl


 
-1 year
-1 month
-1 day
Now
+1 day
+1 month
+1 year

The interactive orbit chart above shows the body's path through the solar system and its position at the given date. Green and blue lines are shown perpendicular to the ecliptic plane: Green if the path is above the ecliptic plane, blue if it is below. (Left-click and drag to rotate the view; Right-click and drag to move the view; Use scroll wheel to zoom in our out.)

The orbital elements of Taurinensis are:

            e (Eccentricity)                : 0.2542671
            a (Semimajor axis)              : 2.1892955
            i (Inclination)                 : 8.74981
            Ω (Longitude of ascending node) : 106.99454
            ω (Argument of perihelion)      : 249.22080
            M (Mean anomaly)                : 284.65320
            Epoch                           : 2026 Jun 09

            L (Longitude of perihelion)     : 175.99189
            B (Latitude of perihelion)      : -8.17664
            P (Orbital period in years)     : 3.24            
        

The light curve chart below shows the estimated development of the minor planet's magnitude.


The all-sky chart below shows the path of the minor planet over the same period as the light curve. The current position is marked yellow.





The following chart shows the path of the minor planet in the next few days. The field of view is optimized for (~10x50) binoculars and finderscopes.




Ephemerides:
Date       Time       RA (2000)    DEC (2000)    delta   radius  elong  phase   PA    magn
2026-07-26 00:00 UT   15 57 22.1   -15 45 03     1.366    2.046  117.7   26.1   104   14.2 
2026-07-26 08:12 UT   15 57 26.0   -15 47 23     1.368    2.045  117.4   26.2   104   14.2 
2026-07-27 00:00 UT   15 57 34.2   -15 51 55     1.373    2.043  116.8   26.3   104   14.2 
2026-07-28 00:00 UT   15 57 48.4   -15 58 50     1.380    2.040  116.0   26.6   104   14.2 
2026-07-29 00:00 UT   15 58 04.7   -16 05 49     1.387    2.037  115.1   26.8   104   14.2 
2026-07-30 00:00 UT   15 58 23.2   -16 12 51     1.394    2.034  114.3   27.1   104   14.2 
2026-07-31 00:00 UT   15 58 43.7   -16 19 57     1.402    2.031  113.4   27.3   103   14.3 
2026-08-01 00:00 UT   15 59 06.3   -16 27 06     1.409    2.028  112.6   27.5   103   14.3 
2026-08-02 00:00 UT   15 59 31.0   -16 34 19     1.416    2.025  111.7   27.7   103   14.3 
2026-08-03 00:00 UT   15 59 57.7   -16 41 34     1.424    2.022  110.9   28.0   103   14.3 
2026-08-04 00:00 UT   16 00 26.5   -16 48 52     1.431    2.019  110.1   28.2   103   14.3 
2026-08-05 00:00 UT   16 00 57.3   -16 56 12     1.439    2.016  109.3   28.4   103   14.3 
2026-08-06 00:00 UT   16 01 30.1   -17 03 35     1.446    2.013  108.5   28.5   103   14.3 
2026-08-07 00:00 UT   16 02 04.9   -17 11 01     1.454    2.010  107.7   28.7   102   14.4 
2026-08-08 00:00 UT   16 02 41.7   -17 18 29     1.462    2.007  106.9   28.9   102   14.4 
2026-08-09 00:00 UT   16 03 20.4   -17 25 58     1.469    2.004  106.1   29.1   102   14.4 
2026-08-10 00:00 UT   16 04 01.1   -17 33 30     1.477    2.001  105.4   29.2   102   14.4 
2026-08-11 00:00 UT   16 04 43.7   -17 41 03     1.485    1.998  104.6   29.4   102   14.4 
2026-08-12 00:00 UT   16 05 28.3   -17 48 39     1.493    1.995  103.8   29.6   102   14.4 
2026-08-13 00:00 UT   16 06 14.7   -17 56 15     1.500    1.992  103.1   29.7   102   14.4 
2026-08-14 00:00 UT   16 07 03.1   -18 03 53     1.508    1.988  102.3   29.8   101   14.4 
2026-08-15 00:00 UT   16 07 53.3   -18 11 32     1.516    1.985  101.6   30.0   101   14.5 
2026-08-16 00:00 UT   16 08 45.3   -18 19 12     1.524    1.982  100.9   30.1   101   14.5 
2026-08-17 00:00 UT   16 09 39.2   -18 26 53     1.532    1.979  100.1   30.2   101   14.5 
2026-08-18 00:00 UT   16 10 35.0   -18 34 34     1.540    1.976   99.4   30.4   101   14.5 
2026-08-19 00:00 UT   16 11 32.5   -18 42 16     1.548    1.973   98.7   30.5   101   14.5 
2026-08-20 00:00 UT   16 12 31.7   -18 49 58     1.556    1.970   98.0   30.6   101   14.5 
2026-08-21 00:00 UT   16 13 32.8   -18 57 40     1.564    1.967   97.3   30.7   101   14.5 
2026-08-22 00:00 UT   16 14 35.5   -19 05 22     1.572    1.964   96.6   30.8   100   14.5 
2026-08-23 00:00 UT   16 15 40.0   -19 13 04     1.580    1.961   95.9   30.9   100   14.5 
2026-08-24 00:00 UT   16 16 46.2   -19 20 46     1.587    1.958   95.2   30.9   100   14.5 
2026-08-25 00:00 UT   16 17 54.0   -19 28 27     1.595    1.955   94.5   31.0   100   14.6 


    Terminology:
            
    delta:  distance between minor planet and earth in AU
    radius: distance between minor planet and sun in AU
    magn:   magnitude (brightness) estimate    
    ra:     right ascension in hours (24h = 360deg)
    dec:    declination in degrees
    elong:  elongation in degrees (angle sun-earth-minor planet)    
    phase:  phase angle in degrees (angle sun-minor planet-earth)        
    AU:     Astronomical Unit (mean distance between earth and sun: 149597870.7 km
    

Orbital elements provided by the MPC (Minor Planet Center).
Calculations by a modified version of AAPlus, a C# implementation of the AA+ project by PJ Naughter from the algorithms presented in the book "Astronomical Algorithms" by Jean Meeus.
NGC2000 dso catalog and star labels from VizieR as provided by the Strasbourg astronomical Data Center.
Tycho2 catalog from the ESO archive.